Regional Weather Roundup
Issued by NWS

Home | Current Version | Previous Version | Graphics & Text | Print | Product List | Glossary On
Versions: 1 2 3 4 5 6 7 8 9 10 11 12 13 14 15 16 17 18 19 20 21 22 23 24 25 26 27 28 29 30 31 32 33 34 35 36 37 38 39 40 41 42 43 44 45 46 47 48 49 50
000
ASUS43 KMPX 252201
RWRMN
WEATHER ROUNDUP FOR MINNESOTA
NATIONAL WEATHER SERVICE TWIN CITIES/CHANHASSEN MN
500 PM CDT MON JUL 25 2016


NOTE: "FAIR" INDICATES FEW OR NO CLOUDS BELOW 12,000 FEET WITH NO
SIGNIFICANT WEATHER AND/OR OBSTRUCTIONS TO VISIBILITY. N/A MEANS
CURRENT SKY AND/OR WEATHER CONDITIONS ARE NOT AVAILABLE.

MNZ060>063-068>070-252300-
   Twin Cities Metro

CITY           SKY/WX    TMP DP  RH WIND       PRES   REMARKS
TWIN CITIES    MOSUNNY   87  62  43 NW10      30.03F
ST PAUL        SUNNY     85  62  46 NW6       30.02F
CRYSTAL        SUNNY     85  61  44 W12       30.02F
BLAINE         MOSUNNY  N/A N/A N/A W12       30.03F
LAKEVILLE      SUNNY     82  64  54 W8        30.04S
EDEN PRAIRIE   SUNNY     87  62  43 W9        30.03F
LAKEVILLE      SUNNY     82  64  54 W8        30.04S
SOUTH ST PAUL  SUNNY     85  60  42 W6        30.02S
LAKE ELMO      FAIR      84  63  48 NW10      30.04S
$$
MNZ001>005-007-008-013>017-022>024-027-028-252300-
   Northwest Minnesota

CITY           SKY/WX    TMP DP  RH WIND       PRES   REMARKS
HALLOCK        SUNNY     82  64  54 SW5       29.94F
ROSEAU         SUNNY     82  68  61 W5        29.96S
WARROAD        SUNNY     81  66  61 SW9       29.96S
THIEF RVR FALL SUNNY     83  65  54 SW5       29.98F
CROOKSTON      SUNNY     86  64  48 SW7       29.95F
FOSSTON        SUNNY     84  64  51 SW9       29.99F
DETROIT LAKES  SUNNY     84  64  51 S8        30.01F
MOORHEAD       SUNNY     90  61  37 S10       29.96F
PARK RAPIDS    SUNNY     85  61  44 SW10      30.01F
MAHNOMEN       FAIR      84  65  51 SW9       29.98F
$$
MNZ006-009>011-018-025>026-252300-
   North Central Minnesota

CITY           SKY/WX    TMP DP  RH WIND       PRES   REMARKS
BAUDETTE       SUNNY     82  59  45 NW10      29.96S
FLAG ISLAND    SUNNY     81  57  44 W13       29.93S
INTL FALLS     SUNNY     81  59  47 NW10      29.95F
WASKISH        SUNNY     82  64  54 SW9       29.97F
BIG FORK       SUNNY     82  59  44 W7        29.99F
LONGVILLE      SUNNY     82  61  47 W6        30.01F
GRAND RAPIDS   SUNNY     82  62  50 NW10      30.02F
CRANE LAKE     SUNNY     79  57  47 W3        29.97F
ORR            SUNNY     82  55  39 W3        29.95F
COOK           SUNNY     81  61  50 W9        29.98F
WALKER         FAIR      83  63  50 W6        30.00F
$$
MNZ012-019>021-037-252300-
   Northeast Minnesota

CITY           SKY/WX    TMP DP  RH WIND       PRES   REMARKS
DULUTH         MOSUNNY   83  61  47 NW6       30.00F
ELY            MOSUNNY   81  57  44 W5        29.98F
HIBBING        SUNNY     80  60  50 W8        29.99F
EVELETH        SUNNY     83  57  41 NW9       30.00F
DULUTH HARBOR  SUNNY     84  63  48 W9        29.97S
TWO HARBORS    SUNNY     84  64  51 W5        29.96S
SILVER BAY     MOSUNNY   82  59  44 W6        29.96S
GRAND MARAIS     N/A     84  48  28 MISG      29.92S
G MARAIS ARPRT SUNNY     73  54  49 W7        30.00R
$$
MNZ029>031-032-039>041-046>048-054>057-064-252300-
   West Central Minnesota

CITY           SKY/WX    TMP DP  RH WIND       PRES   REMARKS
FERGUS FALLS   SUNNY     86  64  48 MISG      30.00F
WHEATON        SUNNY     90  68  48 S6        30.01F HX  93
MORRIS         SUNNY     88  63  42 S9        30.01F
ALEXANDRIA     SUNNY     84  64  50 W9        30.05F
ELBOW LAKE     FAIR      85  70  60 SW9       30.02F
WADENA         SUNNY     82  64  54 SW9       30.02F
GLENWOOD       SUNNY     84  64  51 SW10      30.06S
APPLETON       SUNNY     88  63  42 S9        30.02F
BENSON         SUNNY     86  61  42 W10       30.03F
ORTONVILLE     SUNNY     88  61  40 S9        30.02S
MADISON        SUNNY     86  63  45 SW9       30.03F
WILLMAR        FAIR      84  68  58 SW8       30.06F
$$
MNZ033>034-036-042>043-049>051-058-059-252300-
   Central Minnesota

CITY           SKY/WX    TMP DP  RH WIND       PRES   REMARKS
ST CLOUD       SUNNY     85  64  49 W10       30.03S
SAUK CENTRE    FAIR      83  62  49 SW9       30.05S
PAYNESVILLE    SUNNY     82  63  51 W8        30.06S
AITKIN         SUNNY     84  57  39 SW6       30.00F
PINE RIVER     SUNNY     82  64  54 S6        30.04F
BRAINERD       SUNNY     84  60  44 W10       30.02F
STAPLES        SUNNY     84  59  42 W8        30.02F
LONG PRAIRIE   FAIR      82  63  51 SW8       30.05S
LITTLE FALLS   SUNNY     84  57  39 W9        30.03F
LITCHFIELD     SUNNY     84  64  51 W5        30.05S
BUFFALO        SUNNY     84  62  47 W6        30.05S
MAPLE LAKE     SUNNY     84  66  54 SW5       30.05S
HUTCHINSON     SUNNY     84  68  59 SW6       30.06F
$$
MNZ037-044-045-052-053-252300-
   East Central Minnesota

CITY           SKY/WX    TMP DP  RH WIND       PRES   REMARKS
PRINCETON      SUNNY     86  63  45 W8        30.03F
MORA           SUNNY     81  59  47 W9        30.04S
CAMBRIDGE      SUNNY     86  64  48 W6        30.01F
RUSH CITY      MOSUNNY   83  63  51 W7        30.03S
MOOSE LAKE     SUNNY     82  61  47 CALM      29.99F
HINCKLEY       FAIR      82  63  51 W9        30.02S
CLOQUET        MOSUNNY   82  57  42 NW8       30.00F
MCGREGOR       SUNNY     82  61  47 W7        30.02S
$$
MNZ071>073-080-081-089-090-097-098-252300-
   Southwest Minnesota

CITY           SKY/WX    TMP DP  RH WIND       PRES   REMARKS
MONTEVIDEO     SUNNY     88  66  48 W9        30.05F HX  90
GRANITE FALLS  SUNNY     87  66  49 S6        30.06S
CANBY          SUNNY     87  58  37 SW10      30.05F
MARSHALL       SUNNY     86  65  49 SW9       30.05F
REDWOOD FALLS  MOSUNNY   86  63  45 W8        30.04F
OLIVIA         SUNNY     82  66  57 W6        30.04F
PIPESTONE      SUNNY     84  61  45 SW8       30.09F
WINDOM         SUNNY     84  63  48 W6        30.08F
WORTHINGTON    SUNNY     83  64  52 MISG      30.09F
JACKSON        SUNNY     84  59  42 W5        30.09F
SLAYTON        SUNNY     84  62  47 SW7       30.10F
$$
MNZ065>067-074>077-082>085-091>093-252300-
   South Central Minnesota

CITY           SKY/WX    TMP DP  RH WIND       PRES   REMARKS
MANKATO        SUNNY     82  61  47 NW7       30.06F
NEW ULM        SUNNY     84  63  48 W5        30.06S
ST JAMES       SUNNY     81  61  50 CALM      30.07F
FAIRMONT       SUNNY     84  64  51 W8        30.06F
GLENCOE        SUNNY     85  67  56 W5        30.04F
FARIBAULT      SUNNY     82  64  54 W7        30.06S
OWATONNA       SUNNY     82  63  51 W9        30.07S
WASECA         SUNNY     79  63  57 NW7       30.08S
ALBERT LEA     SUNNY     81  63  54 NW3       30.08S
$$
MNZ078>079-086>088-094>096-252300-
   Southeast Minnesota

CITY           SKY/WX    TMP DP  RH WIND       PRES   REMARKS
ROCHESTER      SUNNY     82  65  56 NW9       30.07S
RED WING       SUNNY     86  55  35 N8        30.01S
STANTON        SUNNY     84  63  48 NW9       30.03S
DODGE CENTER   SUNNY     82  63  51 N10       30.07S
WINONA         SUNNY     82  59  44 NW8       30.02F
AUSTIN         SUNNY     81  63  54 NW10      30.06F
PRESTON        SUNNY     81  60  50 N7        30.06F
$$
ABBREVIATIONS USED IN REMARKS
   TC - TEMPERATURES IN CELSIUS
  WCI - WIND CHILL INDEX
   HX - HEAT INDEX
  VSB - VISIBILITY
$$



USA.gov is the U.S. government's official web portal to all federal, state and local government web resources and services.